Location: Northcutt
(34.7304°N, 84.4305°W)
Time: 02:00:42
(UTC+00:00)

SR - Pass Details

Date: 04 October 2022
Orbit: 577 x 874 km, 66.7° (Epoch: 06 December)

Event Time Altitude Azimuth Distance (km) Brightness Sun altitude
Rises 00:40:02 0° 170° (S) 3,373 ? -17.5°
Reaches altitude 10° 00:42:55 10° 156° (SSE) 2,474 ? -18.1°
Enters shadow 00:43:36 13° 151° (SSE) 2,289 ? -18.2°
